Weather History for KGRI - May, 2012

Change the Weather History Date:

Saturday, May 26, 2012

  Actual Average Record
Temperature  
Mean Temperature 80 °F 64 °F  
Max Temperature 100 °F 76 °F 100 °F (2012)
Min Temperature 59 °F 53 °F 34 °F (1901)
Degree Days  
Heating Degree Days 0 3  
Month to date heating degree days 54 159  
Since 1 July heating degree days 5030 6161  
Cooling Degree Days 15 3  
Month to date cooling degree days 120 39  
Year to date cooling degree days 165 50  
Growing Degree Days 30 (Base 50)    
Moisture  
Dew Point 62 °F    
Average Humidity 60    
Maximum Humidity 93    
Minimum Humidity 26    
Precipitation  
Precipitation 0.00 in 0.15 in 2.56 in (1996)
Month to date precipitation 1.50 3.66  
Year to date precipitation 4.95 9.20  
Snow  
Snow 0.00 in 0.00 in T in (1953)
Month to date snowfall 0.0 0.1  
Since 1 July snowfall 20.1 29.1  
Snow Depth 0.00 in    
Sea Level Pressure  
Sea Level Pressure 29.72 in    
Wind  
Wind Speed 17 mph (SSE)    
Max Wind Speed 33 mph    
Max Gust Speed 44 mph    
Visibility 10 miles    
Events      
T = Trace of Precipitation, MM = Missing Value Source: NWS Daily Summary

Daily Weather History Graph

Daily Weather History Graph

Search for Another Location

Airport or City:

Trip Planner

Search our weather history database for the weather conditions in past years. The results will help you decide how hot, cold, wet, or windy it might be!

Date:

Astronomy

May. 26, 2012 Rise Set
Actual Time 6:06 AM CDT 8:54 PM CDT
Civil Twilight 5:34 AM CDT 9:27 PM CDT
Nautical Twilight 4:53 AM CDT 10:08 PM CDT
Astronomical Twilight 4:06 AM CDT 10:55 PM CDT
Moon 11:10 AM CDT (5/26) 12:29 AM CDT (5/26)
Length of Visible Light 15h 53m
Length of Day
14h 48m
Waxing Crescent, 28% of the Moon is Illuminated
May 26
Waxing Crescent
May 28
First Quarter
Jun 4
Full
Jun 11
Last Quarter
Jun 19
New

Hourly Weather History & Observations

Time (CDT) Temp. Heat Index Dew Point Humidity Pressure Visibility Wind Dir Wind Speed Gust Speed Precip Events Conditions
12:53 AM 62.1 °F - 59.0 °F 90% 29.86 in 10.0 mi NE 9.2 mph - N/A   Overcast
1:53 AM 60.1 °F - 57.9 °F 93% 29.83 in 10.0 mi ENE 12.7 mph - N/A   Partly Cloudy
2:53 AM 60.1 °F - 57.0 °F 90% 29.82 in 10.0 mi East 12.7 mph - N/A   Clear
3:53 AM 60.1 °F - 57.0 °F 90% 29.81 in 10.0 mi East 8.1 mph - N/A   Clear
4:53 AM 59.0 °F - 57.0 °F 93% 29.80 in 10.0 mi East 10.4 mph - N/A   Clear
5:53 AM 60.1 °F - 57.9 °F 93% 29.77 in 10.0 mi ESE 9.2 mph - N/A   Clear
6:53 AM 62.1 °F - 61.0 °F 96% 29.75 in 9.0 mi ESE 11.5 mph - N/A   Clear
7:53 AM 66.9 °F - 64.0 °F 90% 29.75 in 8.0 mi SSE 11.5 mph - N/A   Clear
8:53 AM 75.0 °F - 69.1 °F 82% 29.74 in 9.0 mi SSE 13.8 mph 20.7 mph N/A   Clear
9:53 AM 80.1 °F 82.7 °F 68.0 °F 67% 29.74 in 10.0 mi South 18.4 mph 25.3 mph N/A   Clear
10:53 AM 84.9 °F 88.2 °F 68.0 °F 57% 29.73 in 10.0 mi SSW 15.0 mph 23.0 mph N/A   Clear
11:53 AM 89.1 °F 92.1 °F 66.9 °F 48% 29.73 in 10.0 mi South 17.3 mph 24.2 mph N/A   Clear
12:53 PM 93.9 °F 97.0 °F 66.0 °F 40% 29.71 in 10.0 mi SSW 11.5 mph 20.7 mph N/A   Clear
1:53 PM 96.1 °F 97.3 °F 63.0 °F 33% 29.70 in 10.0 mi South 17.3 mph 29.9 mph N/A   Clear
2:53 PM 93.9 °F 95.2 °F 63.0 °F 36% 29.69 in 10.0 mi SW 10.4 mph - N/A   Clear
3:53 PM 99.0 °F 99.5 °F 60.1 °F 28% 29.65 in 10.0 mi South 18.4 mph 27.6 mph N/A   Clear
4:53 PM 99.0 °F 98.1 °F 57.0 °F 25% 29.62 in 10.0 mi South 28.8 mph 35.7 mph N/A   Clear
5:53 PM 97.0 °F 96.5 °F 59.0 °F 28% 29.63 in 10.0 mi South 23.0 mph 33.4 mph N/A   Clear
6:53 PM 95.0 °F 93.7 °F 57.0 °F 28% 29.62 in 10.0 mi South 21.9 mph 43.7 mph N/A   Clear
7:53 PM 91.0 °F 91.9 °F 63.0 °F 39% 29.61 in 10.0 mi SSE 24.2 mph 34.5 mph N/A   Clear
8:53 PM 88.0 °F 89.3 °F 64.0 °F 45% 29.61 in 10.0 mi SSE 25.3 mph 33.4 mph N/A   Clear
9:53 PM 84.9 °F 87.1 °F 66.0 °F 53% 29.63 in 10.0 mi SSE 23.0 mph 32.2 mph N/A   Clear
10:53 PM 82.0 °F 84.9 °F 68.0 °F 62% 29.65 in 10.0 mi SSE 23.0 mph 32.2 mph N/A   Clear
11:53 PM 80.1 °F 82.9 °F 69.1 °F 69% 29.65 in 10.0 mi South 24.2 mph 28.8 mph N/A   Clear